DT_LEITURA;HR_LEITURA;MED-PressaoAtm[hPa];VAL-TempExt[oC];VAL-UmidExt[%UR];VAL-TempInt[oC];VAL-UmidInt[%UR];Dir-Vento[grau];Vel-Vento[m/s];Precipitação[mm/h]
31/08/2026;00:04:00;1016,4;;;18,0;82;254;4,6;0,6
31/08/2026;00:09:00;1016,0;;;18,0;82;216;3,4;1,0
31/08/2026;00:14:00;1015,2;;;18,0;82;225;4,0;0,6
31/08/2026;00:19:00;1015,7;;;18,0;82;254;3,9;0,6
31/08/2026;00:24:00;1015,5;;;18,0;82;225;2,6;0,8
31/08/2026;00:29:00;1014,9;;;18,0;82;230;1,9;0,4
31/08/2026;00:34:00;1014,7;;;18,0;82;249;2,1;0,2
31/08/2026;00:39:00;1014,6;;;18,0;82;236;1,7;0,0
31/08/2026;00:44:00;1014,6;;;17,9;82;239;2,1;0,0
31/08/2026;00:49:00;1014,9;;;17,9;82;225;2,3;0,0
31/08/2026;00:54:00;1014,8;;;17,9;82;235;2,5;0,0
31/08/2026;00:59:00;1015,3;;;18,0;83;239;2,4;0,0
31/08/2026;01:04:00;1015,5;;;18,0;83;240;3,6;0,0
31/08/2026;01:09:00;1015,4;;;18,0;83;238;3,9;0,2
31/08/2026;01:14:00;1015,1;;;18,1;82;241;3,8;0,0
31/08/2026;01:19:00;1015,2;;;18,1;82;236;2,9;0,0
31/08/2026;01:24:00;1015,0;;;18,1;82;236;2,7;0,0
31/08/2026;01:29:00;1015,0;;;18,1;82;245;3,6;0,0
31/08/2026;01:34:00;1014,9;;;18,1;82;237;3,2;0,2
31/08/2026;01:39:00;1014,9;;;18,1;82;234;3,1;0,0
31/08/2026;01:44:00;1014,9;;;18,1;83;243;2,5;0,0
31/08/2026;01:49:00;1014,8;;;18,1;82;236;3,0;0,0
31/08/2026;01:54:00;1014,7;;;18,1;82;237;3,5;0,0
31/08/2026;01:59:00;1014,5;;;18,1;82;228;2,2;0,0
31/08/2026;02:04:00;1014,0;;;18,1;82;230;1,9;0,0
31/08/2026;02:09:00;1013,7;;;18,1;82;220;1,9;0,0
31/08/2026;02:14:00;1013,7;;;18,1;82;235;2,5;0,0
31/08/2026;02:19:00;1013,9;;;18,0;82;242;2,5;0,0
31/08/2026;02:24:00;1014,5;;;18,0;82;237;3,9;0,0
31/08/2026;02:29:00;1014,9;;;18,0;82;237;3,7;0,0
31/08/2026;02:34:00;1014,7;;;18,0;83;236;2,6;0,0
31/08/2026;02:39:00;1013,9;;;18,0;83;165;1,0;0,0
31/08/2026;02:44:00;1013,0;;;18,0;82;165;0,8;0,0
31/08/2026;02:49:00;1012,9;;;18,0;82;157;0,5;0,0
31/08/2026;02:54:00;1013,5;;;18,0;83;204;1,7;0,0
31/08/2026;02:59:00;1014,0;;;18,0;83;218;3,0;0,2
31/08/2026;03:04:00;1014,2;;;18,0;83;222;3,4;1,0
31/08/2026;03:09:00;1014,4;;;18,0;83;249;2,6;0,4
31/08/2026;03:14:00;1014,4;;;18,0;83;240;2,2;0,2
31/08/2026;03:19:00;1014,1;;;18,0;83;234;2,3;0,4
31/08/2026;03:24:00;1013,6;;;18,0;83;208;1,7;0,4
31/08/2026;03:29:00;1013,1;;;18,1;83;217;1,7;0,2
31/08/2026;03:34:00;1012,7;;;18,1;83;220;0,6;0,0
31/08/2026;03:39:00;1012,4;;;18,1;83;234;0,5;0,0
31/08/2026;03:44:00;1012,5;;;18,1;83;214;0,4;0,0
31/08/2026;03:49:00;1012,5;;;18,0;83;224;1,0;0,0
31/08/2026;03:54:00;1012,8;;;18,0;83;220;1,0;0,0
31/08/2026;03:59:00;1013,1;;;18,0;83;232;1,0;0,0
31/08/2026;04:04:00;1013,0;;;18,0;83;194;1,2;0,0
31/08/2026;04:09:00;1012,9;;;18,1;83;219;2,0;0,0
31/08/2026;04:14:00;1013,0;;;18,1;83;238;3,1;0,0
31/08/2026;04:19:00;1012,9;;;18,1;83;240;3,0;0,0
31/08/2026;04:24:00;1013,0;;;18,1;83;241;3,0;0,0
31/08/2026;04:29:00;1013,2;;;18,1;83;231;3,1;0,0
31/08/2026;04:34:00;1013,2;;;18,1;83;228;2,5;0,0
31/08/2026;04:39:00;1013,1;;;18,1;83;227;3,2;0,0
31/08/2026;04:44:00;1013,0;;;18,1;83;219;3,7;0,0
31/08/2026;04:49:00;1013,1;;;18,1;83;232;3,2;0,0
31/08/2026;04:54:00;1013,0;;;18,1;83;230;2,6;0,0
31/08/2026;04:59:00;1013,0;;;18,1;83;236;2,4;0,0
31/08/2026;05:04:00;1012,9;;;18,1;83;212;2,8;0,0
31/08/2026;05:09:00;1012,5;;;18,1;83;212;2,4;0,0
31/08/2026;05:14:00;1012,3;;;18,1;83;211;2,4;0,0
31/08/2026;05:19:00;1012,1;;;18,1;83;219;2,0;0,0
31/08/2026;05:24:00;1012,1;;;18,1;83;216;1,3;0,0
31/08/2026;05:29:00;1011,9;;;18,1;82;190;1,5;0,0
31/08/2026;05:34:00;1012,1;;;18,0;83;237;1,4;0,0
31/08/2026;05:39:00;1012,0;;;18,0;83;211;1,5;0,0
31/08/2026;05:44:00;1011,6;;;18,0;83;203;1,1;0,0
31/08/2026;05:49:00;1011,5;;;18,0;83;232;0,8;0,0
31/08/2026;05:54:00;1012,4;;;18,0;83;264;2,2;0,0
31/08/2026;05:59:00;1012,2;;;18,0;83;194;1,2;0,0
31/08/2026;06:04:00;1011,8;;;18,0;83;164;1,3;0,0
31/08/2026;06:09:00;1011,6;;;18,0;83;186;1,3;0,0
31/08/2026;06:14:00;1011,7;;;18,1;83;219;1,6;0,0
31/08/2026;06:19:00;1012,1;;;18,1;83;225;1,9;0,0
31/08/2026;06:24:00;1012,0;;;18,1;83;207;1,1;0,0
31/08/2026;06:29:00;1012,0;;;18,1;83;208;0,9;0,0
31/08/2026;06:34:00;1012,0;;;18,1;83;197;0,7;0,0
31/08/2026;06:39:00;1012,3;;;18,1;83;254;1,4;0,0
31/08/2026;06:44:00;1012,5;;;18,2;83;229;1,0;0,0
31/08/2026;06:49:00;1012,5;;;18,2;83;215;1,4;0,0
31/08/2026;06:54:00;1012,6;;;18,2;83;213;2,0;0,0
31/08/2026;06:59:00;1012,5;;;18,2;83;229;1,8;0,0
31/08/2026;07:04:00;1012,5;;;18,2;83;214;1,2;0,0
31/08/2026;07:09:00;1012,2;;;18,2;83;216;1,2;0,0
31/08/2026;07:14:00;1012,6;;;18,2;83;237;1,1;0,0
31/08/2026;07:19:00;1012,9;;;18,2;83;207;1,2;0,0
31/08/2026;07:24:00;1012,6;;;18,2;83;188;1,2;0,0
31/08/2026;07:29:00;1012,4;;;18,2;83;186;1,1;0,0
31/08/2026;07:34:00;1012,3;;;18,2;83;207;1,3;0,0
31/08/2026;07:39:00;1012,4;;;18,2;83;236;1,5;0,0
31/08/2026;07:44:00;1012,8;;;18,2;83;259;1,5;0,0
31/08/2026;07:49:00;1013,1;;;18,2;83;263;1,4;0,0
31/08/2026;07:54:00;1013,1;;;18,3;83;273;0,7;0,0
31/08/2026;07:59:00;1013,1;;;18,3;83;221;0,7;0,0
31/08/2026;08:04:00;1013,1;;;18,3;83;260;1,4;0,0
31/08/2026;08:09:00;1012,9;;;18,4;83;52;0,6;0,0
31/08/2026;08:14:00;1012,7;;;18,4;83;157;0,6;0,0
31/08/2026;08:24:00;1013,1;;;18,4;83;215;1,1;0,2
31/08/2026;08:29:00;1013,5;;;18,4;83;254;1,5;0,0
31/08/2026;08:34:00;1013,9;;;18,4;83;271;1,7;0,0
31/08/2026;08:39:00;1013,8;;;18,4;83;207;0,9;0,2
31/08/2026;08:44:00;1013,6;;;18,4;83;146;1,4;0,8
31/08/2026;08:49:00;1013,8;;;18,4;83;180;0,5;0,4
31/08/2026;08:54:00;1013,9;;;18,4;83;187;1,1;0,4
31/08/2026;08:59:00;1013,8;;;18,4;83;157;0,9;0,2
31/08/2026;09:04:00;1013,7;;;18,4;83;120;1,0;0,2
31/08/2026;09:09:00;1013,9;;;18,4;83;128;1,1;0,4
31/08/2026;09:14:00;1013,8;;;18,4;83;100;1,2;0,2
31/08/2026;09:19:00;1013,7;;;18,5;83;71;1,8;0,2
31/08/2026;09:24:00;1013,7;;;18,4;83;59;0,9;0,2
31/08/2026;09:29:00;1013,8;;;18,4;83;50;0,8;0,2
31/08/2026;09:34:00;1013,7;;;18,4;83;66;0,9;0,0
31/08/2026;09:39:00;1013,6;;;18,4;83;37;0,5;0,2
31/08/2026;09:44:00;1013,7;;;18,4;83;303;0,6;0,0
31/08/2026;09:49:00;1013,6;;;18,5;83;32;0,5;0,2
31/08/2026;09:54:00;1013,5;;;18,5;84;183;0,4;0,0
31/08/2026;09:59:00;1013,5;;;18,5;84;205;0,8;0,0
31/08/2026;10:04:00;1013,5;;;18,5;84;178;1,3;0,0
31/08/2026;10:09:00;1013,6;;;18,5;83;184;1,3;0,2
31/08/2026;10:14:00;1013,7;;;18,5;83;223;0,7;0,0
31/08/2026;10:19:00;1013,7;;;18,5;83;329;0,6;0,0
31/08/2026;10:24:00;1013,7;;;18,5;83;27;0,9;0,0
31/08/2026;10:29:00;1013,5;;;18,5;84;29;1,2;0,2
31/08/2026;10:34:00;1013,4;;;18,6;84;27;1,4;0,0
31/08/2026;10:39:00;1013,3;;;18,6;84;19;1,5;0,0
31/08/2026;10:44:00;1013,2;;;18,6;84;19;1,7;0,2
31/08/2026;10:49:00;1013,1;;;18,6;84;21;2,3;0,0
31/08/2026;10:54:00;1013,1;;;18,6;84;16;2,9;0,0
31/08/2026;10:59:00;1013,0;;;18,6;84;24;3,7;0,0
31/08/2026;11:04:00;1012,9;;;18,5;84;31;3,0;0,2
31/08/2026;11:09:00;1012,8;;;18,5;84;24;3,8;0,0
31/08/2026;11:14:00;1012,7;;;18,5;84;24;3,4;0,0
31/08/2026;11:19:00;1012,5;;;18,5;84;28;3,4;0,0
31/08/2026;11:24:00;1012,2;;;18,6;84;26;3,7;0,2
31/08/2026;11:29:00;1012,3;;;18,6;84;25;3,8;0,0
31/08/2026;11:34:00;1012,4;;;18,6;84;24;3,2;0,0
31/08/2026;11:39:00;1012,4;;;18,6;84;22;3,6;0,0
31/08/2026;11:44:00;1012,2;;;18,7;84;24;4,1;0,0
31/08/2026;11:49:00;1012,0;;;18,7;84;24;4,1;0,2
31/08/2026;11:54:00;1012,1;;;18,7;84;22;3,9;0,0
31/08/2026;11:59:00;1012,2;;;18,7;84;19;3,0;0,0
31/08/2026;12:04:00;1012,4;;;18,8;84;12;2,4;0,0
31/08/2026;12:09:00;1012,3;;;18,8;84;26;1,9;0,0
31/08/2026;12:14:00;1012,0;;;18,9;84;33;2,2;0,0
31/08/2026;12:19:00;1011,8;;;18,9;84;39;2,4;0,0
31/08/2026;12:24:00;1011,5;;;18,9;84;42;3,2;0,2
31/08/2026;12:29:00;1011,3;;;19,0;84;39;3,2;0,0
31/08/2026;12:34:00;1011,3;;;19,0;84;34;2,6;0,0
31/08/2026;12:39:00;1011,0;;;19,0;84;39;3,3;0,0
31/08/2026;12:44:00;1010,9;;;19,0;84;37;3,2;0,0
31/08/2026;12:49:00;1010,7;;;19,0;84;36;2,6;0,0
31/08/2026;12:54:00;1010,6;;;19,0;84;35;2,3;0,0
31/08/2026;12:59:00;1010,5;;;19,0;84;32;2,3;0,0
31/08/2026;13:04:00;1010,4;;;19,1;84;25;3,0;0,0
31/08/2026;13:09:00;1010,2;;;19,1;84;25;3,2;0,0
31/08/2026;13:14:00;1010,0;;;19,1;84;26;3,4;0,0
31/08/2026;13:19:00;1009,9;;;19,2;85;23;3,5;0,0
31/08/2026;13:24:00;1009,9;;;19,2;85;19;3,3;0,0
31/08/2026;13:29:00;1009,9;;;19,2;85;17;3,4;0,0
31/08/2026;13:34:00;1009,8;;;19,3;84;21;3,0;0,0
31/08/2026;13:39:00;1009,7;;;19,3;84;21;3,1;0,0
31/08/2026;13:44:00;1009,7;;;19,3;84;22;3,2;0,0
31/08/2026;13:49:00;1009,8;;;19,3;84;19;3,1;0,0
31/08/2026;13:54:00;1010,0;;;19,3;84;15;3,5;0,0
31/08/2026;13:59:00;1010,0;;;19,3;84;16;3,7;0,0
31/08/2026;14:04:00;1009,9;;;19,3;84;18;3,5;0,0
31/08/2026;14:09:00;1009,8;;;19,3;84;19;3,8;0,0
31/08/2026;14:14:00;1009,9;;;19,3;84;19;4,1;0,2
31/08/2026;14:19:00;1010,1;;;19,3;84;19;4,3;0,0
31/08/2026;14:24:00;1010,2;;;19,3;84;22;4,4;0,2
31/08/2026;14:29:00;1010,3;;;19,3;84;22;4,6;0,0
31/08/2026;14:34:00;1010,3;;;19,3;84;24;4,4;0,0
31/08/2026;14:39:00;1010,3;;;19,3;84;22;4,1;0,0
31/08/2026;14:44:00;1010,4;;;19,2;84;22;4,0;0,0
31/08/2026;14:49:00;1010,4;;;19,2;84;22;4,7;0,2
31/08/2026;14:54:00;1010,3;;;19,2;84;24;4,1;0,0
31/08/2026;14:59:00;1010,2;;;19,2;84;24;3,8;0,2
31/08/2026;15:04:00;1010,3;;;19,2;84;22;3,8;0,0
31/08/2026;15:09:00;1010,2;;;19,2;84;24;3,8;0,0
31/08/2026;15:14:00;1010,0;;;19,2;84;24;3,7;0,0
31/08/2026;15:19:00;1009,9;;;19,2;84;25;3,9;0,0
31/08/2026;15:24:00;1009,7;;;19,2;84;26;4,1;0,2
31/08/2026;15:29:00;1009,7;;;19,2;84;24;3,8;0,0
31/08/2026;15:34:00;1009,6;;;19,3;84;26;3,6;0,0
31/08/2026;15:39:00;1009,5;;;19,3;84;25;4,0;0,0
31/08/2026;15:44:00;1009,4;;;19,3;84;25;4,1;0,0
31/08/2026;15:49:00;1009,4;;;19,3;84;26;3,6;0,0
31/08/2026;15:54:00;1009,4;;;19,3;84;24;3,5;0,0
31/08/2026;15:59:00;1009,3;;;19,3;84;23;3,0;0,0
31/08/2026;16:04:00;1009,2;;;19,3;84;26;2,8;0,0
31/08/2026;16:09:00;1009,2;;;19,3;84;22;3,0;0,0
31/08/2026;16:14:00;1009,2;;;19,3;84;26;3,4;0,0
31/08/2026;16:19:00;1009,1;;;19,3;84;27;3,2;0,0
31/08/2026;16:24:00;1009,1;;;19,3;84;30;2,9;0,0
31/08/2026;16:29:00;1008,8;;;19,3;84;35;2,8;0,0
31/08/2026;16:39:00;1007,5;;;19,3;84;33;3,7;0,0
31/08/2026;16:44:00;1007,6;;;19,3;84;30;3,2;0,2
31/08/2026;16:49:00;1007,6;;;19,3;84;29;4,0;0,0
31/08/2026;16:59:00;1008,0;;;19,3;84;24;4,0;0,0
31/08/2026;17:09:00;1010,0;;;19,3;84;22;3,7;0,0
31/08/2026;17:14:00;1009,7;;;19,3;84;24;4,3;0,4
31/08/2026;17:19:00;1009,8;;;19,3;84;16;3,6;0,4
31/08/2026;17:24:00;1010,1;;;19,3;84;20;2,9;0,4
31/08/2026;17:29:00;1010,3;;;19,3;84;20;3,6;0,4
31/08/2026;17:34:00;1010,3;;;19,3;84;24;3,2;0,4
31/08/2026;17:39:00;1010,5;;;19,3;84;25;3,1;0,6
31/08/2026;17:44:00;1010,4;;;19,3;84;29;3,1;0,6
31/08/2026;17:49:00;1010,0;;;19,3;84;35;2,8;0,6
31/08/2026;17:59:00;1009,8;;;19,3;84;25;2,6;0,4
31/08/2026;18:04:00;1009,9;;;19,3;84;31;2,0;0,2
31/08/2026;18:14:00;1009,7;;;19,3;83;25;2,3;0,2
31/08/2026;18:19:00;1009,6;;;19,3;84;25;2,4;0,2
31/08/2026;18:24:00;1009,4;;;19,3;84;28;2,2;0,2
31/08/2026;18:29:00;1009,4;;;19,2;84;34;1,9;0,0
31/08/2026;18:34:00;1009,5;;;19,2;84;38;1,8;0,2
31/08/2026;18:39:00;1009,6;;;19,2;84;37;1,2;0,0
31/08/2026;18:44:00;1009,5;;;19,2;84;41;1,2;0,0
31/08/2026;18:49:00;1009,4;;;19,2;84;56;1,8;0,0
31/08/2026;18:54:00;1009,3;;;19,2;84;60;2,3;0,2
31/08/2026;18:59:00;1009,4;;;19,2;84;57;1,9;0,4
31/08/2026;19:04:00;1009,5;;;19,2;84;46;1,3;0,6
31/08/2026;19:09:00;1009,7;;;19,2;84;35;0,7;0,2
31/08/2026;19:14:00;1009,7;;;19,2;84;22;0,7;0,2
31/08/2026;19:19:00;1009,9;;;19,2;84;354;0,3;0,0
31/08/2026;19:24:00;1010,0;;;19,2;84;62;0,8;0,2
31/08/2026;19:29:00;1010,1;;;19,2;84;38;1,6;0,0
31/08/2026;19:34:00;1010,2;;;19,2;84;15;1,3;0,2
31/08/2026;19:39:00;1010,3;;;19,2;84;21;1,1;0,2
31/08/2026;19:44:00;1010,3;;;19,2;84;9;1,2;0,0
31/08/2026;19:49:00;1010,4;;;19,2;84;31;1,0;0,4
31/08/2026;19:54:00;1010,4;;;19,2;84;24;0,7;0,0
31/08/2026;19:59:00;1010,4;;;19,2;84;46;0,7;0,2
31/08/2026;20:04:00;1010,3;;;19,2;84;46;0,7;0,0
31/08/2026;20:09:00;1010,2;;;19,2;84;48;1,0;0,2
31/08/2026;20:14:00;1010,2;;;19,2;84;25;1,2;0,0
31/08/2026;20:19:00;1010,1;;;19,2;84;21;1,5;0,2
31/08/2026;20:24:00;1010,0;;;19,2;84;25;1,4;0,0
31/08/2026;20:29:00;1010,3;;;19,2;84;14;1,4;0,2
31/08/2026;20:34:00;1010,5;;;19,2;84;21;1,3;0,2
31/08/2026;20:39:00;1010,7;;;19,2;84;29;1,4;0,0
31/08/2026;20:44:00;1010,9;;;19,2;84;21;1,7;0,4
31/08/2026;20:49:00;1011,1;;;19,2;84;13;1,0;0,0
31/08/2026;20:54:00;1011,3;;;19,2;84;357;0,8;0,2
31/08/2026;20:59:00;1011,4;;;19,2;84;17;0,4;0,2
31/08/2026;21:04:00;1011,3;;;19,2;84;41;0,9;0,2
31/08/2026;21:09:00;1011,1;;;19,2;84;42;0,9;0,2
31/08/2026;21:14:00;1011,0;;;19,2;84;58;1,1;0,0
31/08/2026;21:19:00;1010,9;;;19,2;84;52;1,2;0,2
31/08/2026;21:24:00;1011,0;;;19,2;84;45;1,3;0,0
31/08/2026;21:29:00;1011,1;;;19,2;84;33;1,3;0,0
31/08/2026;21:34:00;1011,2;;;19,2;84;46;1,2;0,2
31/08/2026;21:39:00;1011,1;;;19,2;84;34;1,4;0,2
31/08/2026;21:44:00;1010,9;;;19,1;84;41;1,9;0,0
31/08/2026;21:49:00;1010,8;;;19,1;84;42;2,2;0,2
31/08/2026;21:54:00;1010,7;;;19,1;84;42;1,9;0,0
31/08/2026;21:59:00;1010,4;;;19,1;84;40;2,2;0,2
31/08/2026;22:04:00;1010,1;;;19,0;84;33;2,3;0,0
31/08/2026;22:09:00;1009,9;;;19,0;84;28;2,8;0,0
31/08/2026;22:14:00;1009,6;;;19,0;84;30;2,8;0,2
31/08/2026;22:19:00;1009,8;;;19,0;84;26;2,3;0,0
31/08/2026;22:24:00;1010,2;;;19,0;84;18;1,5;0,0
31/08/2026;22:29:00;1010,0;;;19,0;84;32;2,4;0,0
31/08/2026;22:34:00;1009,6;;;19,0;84;27;2,4;0,0
31/08/2026;22:39:00;1010,0;;;19,0;84;4;1,5;0,0
31/08/2026;22:44:00;1010,1;;;19,0;84;6;1,5;0,0
31/08/2026;22:49:00;1010,4;;;19,0;84;22;1,3;0,0
31/08/2026;22:54:00;1010,5;;;19,0;84;31;1,7;0,0
31/08/2026;22:59:00;1010,3;;;19,0;84;36;2,0;0,0
31/08/2026;23:04:00;1010,0;;;19,0;84;23;2,8;0,0
31/08/2026;23:09:00;1009,6;;;19,0;84;28;2,7;0,0
31/08/2026;23:14:00;1008,8;;;19,0;84;24;3,4;0,0
31/08/2026;23:19:00;1007,7;;;19,0;84;34;3,5;0,0
31/08/2026;23:24:00;1006,3;;;19,0;84;44;7,1;0,2
31/08/2026;23:29:00;1006,2;;;19,0;84;40;6,5;0,0
31/08/2026;23:34:00;1006,1;;;19,0;84;37;4,6;0,0
31/08/2026;23:39:00;1005,8;;;19,0;84;36;5,0;0,0
31/08/2026;23:44:00;1005,7;;;19,0;84;36;5,3;0,0
31/08/2026;23:49:00;1006,6;;;18,9;84;17;3,9;0,0
31/08/2026;23:54:00;1007,2;;;18,9;84;20;4,6;0,0
31/08/2026;23:59:00;1007,6;;;18,9;84;17;4,0;0,0
